Find Starlink 31177

NORAD ID: 58873 Int'l Des: 2024-019 Owner: SPXS Country: US Constellation: starlink operational
LEOCIRCULAR

Live Position

Loading 3D Globe...

About Starlink 31177

Description loading...

Upcoming Passes

Passes for default location (London). Set your location on the main map for personalized predictions.

Altitude History

Loading altitude history...

Two-Line Element Set

1 58873U 24019W 26112.09383029 -.00003133 00000-0 -10427-3 0 9992
2 58873 43.0063 3.5250 0001718 260.6050 99.4607 15.27607635125724
Epoch: Apr 22, 2026 • Age: 16 hours

Current Status

Altitude 483.6 km
Velocity 7.63 km/s
Sub-Earth Point -5.37°S, 125.37°W
Launch Date Jan 29, 2024
Age 2.2 years
Type internet

Technical Details

Classification Payload
Mass 730.00 kg
Dry Mass 700.00 kg
Total Mass 730.00 kg
Length 0.30 m
Diameter 4.10 m
Span 29.00 m
Shape Box + pan
Manufacturer SPXS
Bus Type Starlink V2M
Phase Status In Orbit
Owner/State SPXS/US

Most Searched